| time (UTC) | temp C | wind direction | speed KPH | gust KPH | rain 1hr cm | rain 24hr cm | rain mn cm | humidity % | barometer mb |
| 20260507202527 | 13 | 311 | 4.8 | 8.0 | 0.00 | 0.00 | 0.00 | 47 | 1014.2 |
| 20260507202024 | 13 | 297 | 1.6 | 3.2 | 0.00 | 0.00 | 0.00 | 47 | 1014.1 |
| 20260507201519 | 14 | 258 | 4.8 | 4.8 | 0.00 | 0.00 | 0.00 | 47 | 1014.2 |
| 20260507201016 | 15 | 3 | 6.4 | 8.0 | 0.00 | 0.00 | 0.00 | 46 | 1014.1 |
| 20260507200511 | 14 | 17 | 4.8 | 4.8 | 0.00 | 0.00 | 0.00 | 48 | 1014.0 |
| 20260507200008 | 14 | 342 | 4.8 | 4.8 | 0.00 | 0.00 | 0.00 | 45 | 1014.2 |
| 20260507195505 | 13 | 346 | 6.4 | 8.0 | 0.00 | 0.00 | 0.00 | 43 | 1014.1 |
| 20260507195003 | 13 | 248 | 8.0 | 9.7 | 0.00 | 0.00 | 0.00 | 44 | 1014.2 |
| 20260507194459 | 14 | 325 | 6.4 | 8.0 | 0.00 | 0.00 | 0.00 | 42 | 1014.3 |
| 20260507193954 | 14 | 44 | 4.8 | 4.8 | 0.00 | 0.00 | 0.00 | 47 | 1014.5 |
| 20260507193452 | 13 | 328 | 6.4 | 8.0 | 0.00 | 0.00 | 0.00 | 45 | 1014.3 |
| 20260507192948 | 14 | 303 | 8.0 | 9.7 | 0.00 | 0.00 | 0.00 | 45 | 1014.5 |
| 20260507192444 | 14 | 312 | 4.8 | 4.8 | 0.00 | 0.00 | 0.00 | 45 | 1014.4 |
| 20260507191942 | 13 | 250 | 6.4 | 8.0 | 0.00 | 0.00 | 0.00 | 45 | 1014.4 |
| 20260507191437 | 13 | 261 | 4.8 | 8.0 | 0.00 | 0.00 | 0.00 | 45 | 1014.5 |
| 20260507190934 | 13 | 132 | 1.6 | 1.6 | 0.00 | 0.00 | 0.00 | 47 | 1014.5 |
| 20260507190432 | 13 | 36 | 3.2 | 3.2 | 0.00 | 0.00 | 0.00 | 48 | 1014.5 |
| 20260507185931 | 14 | 256 | 4.8 | 8.0 | 0.00 | 0.00 | 0.00 | 45 | 1014.6 |
| 20260507185428 | 14 | 276 | 11.3 | 12.9 | 0.00 | 0.00 | 0.00 | 44 | 1014.6 |
| 20260507184925 | 13 | 288 | 6.4 | 8.0 | 0.00 | 0.00 | 0.00 | 46 | 1014.7 |
| 20260507184422 | 14 | 330 | 4.8 | 8.0 | 0.00 | 0.00 | 0.00 | 46 | 1014.5 |
| 20260507183920 | 13 | 352 | 8.0 | 11.3 | 0.00 | 0.00 | 0.00 | 46 | 1014.6 |
| 20260507183416 | 14 | 327 | 4.8 | 8.0 | 0.00 | 0.00 | 0.00 | 47 | 1014.7 |
| 20260507182914 | 13 | 274 | 4.8 | 8.0 | 0.00 | 0.00 | 0.00 | 48 | 1015.0 |
| 20260507182409 | 13 | 298 | 1.6 | 1.6 | 0.00 | 0.00 | 0.00 | 50 | 1014.6 |
| 20260507181906 | 13 | 301 | 4.8 | 8.0 | 0.00 | 0.00 | 0.00 | 48 | 1014.8 |
| 20260507181402 | 13 | 339 | 6.4 | 14.5 | 0.00 | 0.00 | 0.00 | 48 | 1015.0 |
| 20260507180859 | 13 | 3 | 4.8 | 8.0 | 0.00 | 0.00 | 0.00 | 47 | 1014.6 |
| 20260507180356 | 13 | 289 | 4.8 | 8.0 | 0.00 | 0.00 | 0.00 | 48 | 1014.7 |
| 20260507175852 | 13 | 327 | 6.4 | 9.7 | 0.00 | 0.00 | 0.00 | 48 | 1014.9 |
| 20260507175349 | 13 | 359 | 4.8 | 8.0 | 0.00 | 0.00 | 0.00 | 50 | 1015.0 |
| 20260507174846 | 13 | 68 | 3.2 | 3.2 | 0.00 | 0.00 | 0.00 | 56 | 1015.1 |
| 20260507174343 | 13 | 247 | 4.8 | 4.8 | 0.00 | 0.00 | 0.00 | 50 | 1015.2 |
| 20260507173841 | 13 | 14 | 6.4 | 9.7 | 0.00 | 0.00 | 0.00 | 49 | 1015.1 |
| 20260507173338 | 13 | 71 | 6.4 | 9.7 | 0.00 | 0.00 | 0.00 | 49 | 1015.0 |
| 20260507172834 | 13 | 326 | 4.8 | 8.0 | 0.00 | 0.00 | 0.00 | 52 | 1015.1 |
| 20260507172331 | 13 | 358 | 1.6 | 3.2 | 0.00 | 0.00 | 0.00 | 52 | 1014.9 |
| 20260507171827 | 13 | 322 | 8.0 | 9.7 | 0.00 | 0.00 | 0.00 | 49 | 1015.2 |
| 20260507171324 | 13 | 288 | 4.8 | 4.8 | 0.00 | 0.00 | 0.00 | 51 | 1015.3 |
| 20260507170821 | 12 | 341 | 9.7 | 17.7 | 0.00 | 0.00 | 0.00 | 48 | 1015.4 |
| 20260507170317 | 13 | 276 | 9.7 | 11.3 | 0.00 | 0.00 | 0.00 | 47 | 1015.5 |
| 20260507165813 | 14 | 312 | 8.0 | 14.5 | 0.00 | 0.00 | 0.00 | 45 | 1015.2 |
| 20260507165309 | 13 | 10 | 3.2 | 4.8 | 0.00 | 0.00 | 0.00 | 54 | 1015.3 |
| 20260507164805 | 13 | 40 | 1.6 | 3.2 | 0.00 | 0.00 | 0.00 | 48 | 1015.6 |
| 20260507164303 | 12 | 295 | 4.8 | 4.8 | 0.00 | 0.00 | 0.00 | 50 | 1015.6 |
| 20260507163800 | 12 | 300 | 6.4 | 8.0 | 0.00 | 0.00 | 0.00 | 52 | 1015.5 |
| 20260507163257 | 12 | 299 | 3.2 | 3.2 | 0.00 | 0.00 | 0.00 | 52 | 1015.4 |
| 20260507162753 | 13 | 301 | 3.2 | 4.8 | 0.00 | 0.00 | 0.00 | 53 | 1015.6 |
| 20260507162249 | 12 | 255 | 3.2 | 4.8 | 0.00 | 0.00 | 0.00 | 51 | 1015.4 |
| 20260507161747 | 12 | 8 | 6.4 | 11.3 | 0.00 | 0.00 | 0.00 | 51 | 1015.6 |
| 20260507161243 | 12 | 301 | 8.0 | 8.0 | 0.00 | 0.00 | 0.00 | 51 | 1015.6 |
| 20260507160739 | 12 | 355 | 1.6 | 1.6 | 0.00 | 0.00 | 0.00 | 51 | 1015.8 |
| 20260507160236 | 12 | 280 | 4.8 | 8.0 | 0.00 | 0.00 | 0.00 | 52 | 1015.5 |
| 20260507155731 | 12 | 291 | 1.6 | 3.2 | 0.00 | 0.00 | 0.00 | 56 | 1015.7 |
| 20260507155227 | 12 | 288 | 4.8 | 8.0 | 0.00 | 0.00 | 0.00 | 52 | 1015.6 |
| 20260507154724 | 11 | 355 | 4.8 | 4.8 | 0.00 | 0.00 | 0.00 | 55 | 1015.7 |
| 20260507154222 | 11 | 293 | 6.4 | 9.7 | 0.00 | 0.00 | 0.00 | 52 | 1015.8 |
| 20260507153718 | 11 | 357 | 11.3 | 12.9 | 0.00 | 0.00 | 0.00 | 51 | 1015.5 |
| 20260507153215 | 11 | 300 | 8.0 | 12.9 | 0.00 | 0.00 | 0.00 | 53 | 1015.6 |
| 20260507152712 | 12 | 339 | 4.8 | 4.8 | 0.00 | 0.00 | 0.00 | 52 | 1015.6 |
| 20260507152207 | 11 | 298 | 4.8 | 4.8 | 0.00 | 0.00 | 0.00 | 53 | 1015.5 |
| 20260507151704 | 11 | 320 | 3.2 | 3.2 | 0.00 | 0.00 | 0.00 | 54 | 1015.5 |
| 20260507151200 | 11 | 19 | 9.7 | 12.9 | 0.00 | 0.00 | 0.00 | 50 | 1015.5 |
| 20260507150657 | 11 | 331 | 3.2 | 3.2 | 0.00 | 0.00 | 0.00 | 51 | 1015.5 |
| 20260507150154 | 11 | 261 | 4.8 | 8.0 | 0.00 | 0.00 | 0.00 | 50 | 1015.6 |
| 20260507145650 | 11 | 299 | 6.4 | 9.7 | 0.00 | 0.00 | 0.00 | 52 | 1015.6 |
| 20260507145147 | 11 | 304 | 4.8 | 8.0 | 0.00 | 0.00 | 0.00 | 52 | 1015.5 |
| 20260507144643 | 11 | 342 | 6.4 | 8.0 | 0.00 | 0.00 | 0.00 | 52 | 1015.5 |
| 20260507144142 | 11 | 284 | 4.8 | 4.8 | 0.00 | 0.00 | 0.00 | 49 | 1015.7 |
| 20260507143638 | 11 | 299 | 3.2 | 3.2 | 0.00 | 0.00 | 0.00 | 51 | 1015.7 |
| 20260507143135 | 11 | 257 | 4.8 | 4.8 | 0.00 | 0.00 | 0.00 | 54 | 1015.5 |
| 20260507142630 | 11 | 272 | 4.8 | 4.8 | 0.00 | 0.00 | 0.00 | 54 | 1015.5 |
| 20260507142128 | 11 | 289 | 6.4 | 8.0 | 0.00 | 0.00 | 0.00 | 52 | 1015.5 |
| 20260507141624 | 11 | 335 | 8.0 | 9.7 | 0.00 | 0.00 | 0.00 | 53 | 1015.5 |
| 20260507141121 | 10 | 351 | 6.4 | 8.0 | 0.00 | 0.00 | 0.00 | 53 | 1015.6 |
| 20260507140617 | 10 | 281 | 3.2 | 4.8 | 0.00 | 0.00 | 0.00 | 56 | 1015.5 |
| 20260507140115 | 10 | 318 | 3.2 | 4.8 | 0.00 | 0.00 | 0.00 | 56 | 1015.6 |
| 20260507135612 | 10 | 283 | 4.8 | 4.8 | 0.00 | 0.00 | 0.00 | 55 | 1015.7 |
| 20260507135109 | 10 | 348 | 3.2 | 3.2 | 0.00 | 0.00 | 0.00 | 58 | 1015.5 |
| 20260507134605 | 10 | 276 | 4.8 | 4.8 | 0.00 | 0.00 | 0.00 | 59 | 1015.5 |
| 20260507134101 | 9 | 20 | 3.2 | 4.8 | 0.00 | 0.00 | 0.00 | 57 | 1015.6 |
| 20260507133557 | 9 | 314 | 4.8 | 8.0 | 0.00 | 0.00 | 0.00 | 60 | 1015.5 |
| 20260507133055 | 10 | 334 | 6.4 | 8.0 | 0.00 | 0.00 | 0.00 | 62 | 1015.5 |
| 20260507132552 | 10 | 324 | 1.6 | 1.6 | 0.00 | 0.00 | 0.00 | 66 | 1015.7 |
| 20260507132048 | 9 | 310 | 4.8 | 4.8 | 0.00 | 0.00 | 0.00 | 66 | 1015.7 |
| 20260507131545 | 9 | 294 | 6.4 | 9.7 | 0.00 | 0.00 | 0.00 | 68 | 1015.6 |
| 20260507131043 | 8 | 10 | 4.8 | 4.8 | 0.00 | 0.00 | 0.00 | 70 | 1015.8 |
| 20260507130539 | 8 | 16 | 3.2 | 4.8 | 0.00 | 0.00 | 0.00 | 74 | 1015.6 |
| 20260507130038 | 8 | 342 | 1.6 | 1.6 | 0.00 | 0.00 | 0.00 | 73 | 1015.7 |
| 20260507125536 | 8 | 21 | 3.2 | 3.2 | 0.00 | 0.00 | 0.00 | 75 | 1015.6 |
| 20260507125033 | 8 | 349 | 3.2 | 4.8 | 0.00 | 0.00 | 0.00 | 75 | 1015.7 |
| 20260507124529 | 8 | 335 | 0.0 | 1.6 | 0.00 | 0.00 | 0.00 | 77 | 1015.8 |
| 20260507124027 | 7 | 318 | 1.6 | 3.2 | 0.00 | 0.00 | 0.00 | 77 | 1015.7 |
| 20260507123525 | 7 | 6 | 3.2 | 3.2 | 0.00 | 0.00 | 0.00 | 77 | 1015.5 |
| 20260507123021 | 7 | 279 | 3.2 | 3.2 | 0.00 | 0.00 | 0.00 | 79 | 1015.3 |
| 20260507122516 | 7 | 336 | 3.2 | 3.2 | 0.00 | 0.00 | 0.00 | 79 | 1015.5 |
| 20260507122013 | 7 | 325 | 3.2 | 4.8 | 0.00 | 0.00 | 0.00 | 78 | 1015.4 |
| 20260507121508 | 6 | 244 | 3.2 | 3.2 | 0.00 | 0.00 | 0.00 | 80 | 1015.4 |
| 20260507121004 | 6 | 349 | 4.8 | 4.8 | 0.00 | 0.00 | 0.00 | 80 | 1015.5 |
| 20260507120500 | 6 | 322 | 1.6 | 1.6 | 0.00 | 0.00 | 0.00 | 81 | 1015.4 |
| 20260507115957 | 6 | 343 | 3.2 | 3.2 | 0.00 | 0.00 | 0.00 | 83 | 1015.5 |
| 20260507115454 | 6 | 318 | 1.6 | 1.6 | 0.00 | 0.00 | 0.00 | 82 | 1015.4 |
| 20260507114950 | 6 | 341 | 3.2 | 3.2 | 0.00 | 0.00 | 0.00 | 82 | 1015.5 |
| 20260507114446 | 6 | 1 | 4.8 | 4.8 | 0.00 | 0.00 | 0.00 | 84 | 1015.5 |
| 20260507113944 | 6 | 336 | 1.6 | 3.2 | 0.00 | 0.00 | 0.00 | 85 | 1015.6 |
| 20260507113440 | 5 | 328 | 1.6 | 1.6 | 0.00 | 0.00 | 0.00 | 86 | 1015.5 |
| 20260507112938 | 5 | 286 | 0.0 | 1.6 | 0.00 | 0.00 | 0.00 | 87 | 1015.5 |
| 20260507112435 | 5 | 347 | 1.6 | 3.2 | 0.00 | 0.00 | 0.00 | 88 | 1015.4 |
| 20260507111932 | 5 | 329 | 0.0 | 1.6 | 0.00 | 0.00 | 0.00 | 89 | 1015.4 |
| 20260507111429 | 5 | 344 | 0.0 | 1.6 | 0.00 | 0.00 | 0.00 | 91 | 1015.1 |
| 20260507110925 | 4 | 343 | 0.0 | 0.0 | 0.00 | 0.00 | 0.00 | 93 | 1015.3 |
| 20260507110422 | 4 | 355 | 0.0 | 1.6 | 0.00 | 0.00 | 0.00 | 95 | 1015.2 |
| 20260507105919 | 3 | 332 | 1.6 | 1.6 | 0.00 | 0.00 | 0.00 | 97 | 1015.3 |
| 20260507105415 | 3 | 356 | 0.0 | 0.0 | 0.00 | 0.00 | 0.00 | 98 | 1015.1 |
| 20260507104912 | 3 | 4 | 0.0 | 0.0 | 0.00 | 0.00 | 0.00 | 98 | 1015.1 |
| 20260507104409 | 3 | 20 | 0.0 | 0.0 | 0.00 | 0.00 | 0.00 | 98 | 1014.9 |
| 20260507103904 | 3 | 15 | 0.0 | 0.0 | 0.00 | 0.00 | 0.00 | 98 | 1015.1 |
| 20260507103402 | 3 | 17 | 0.0 | 0.0 | 0.00 | 0.00 | 0.00 | 98 | 1014.9 |
| 20260507102858 | 3 | 348 | 0.0 | 0.0 | 0.00 | 0.00 | 0.00 | 98 | 1014.9 |
| 20260507102354 | 3 | 14 | 0.0 | 0.0 | 0.00 | 0.00 | 0.00 | 98 | 1014.9 |
| 20260507101851 | 3 | 17 | 0.0 | 0.0 | 0.00 | 0.00 | 0.00 | 98 | 1015.0 |
| 20260507101351 | 3 | 7 | 0.0 | 0.0 | 0.00 | 0.00 | 0.00 | 98 | 1014.8 |
| 20260507100848 | 3 | 10 | 0.0 | 0.0 | 0.00 | 0.00 | 0.00 | 98 | 1014.9 |
| 20260507100346 | 3 | 16 | 0.0 | 0.0 | 0.00 | 0.00 | 0.00 | 98 | 1014.9 |
| 20260507095844 | 3 | 3 | 0.0 | 0.0 | 0.00 | 0.00 | 0.00 | 98 | 1015.0 |
| 20260507095340 | 4 | 7 | 0.0 | 0.0 | 0.00 | 0.00 | 0.00 | 98 | 1015.0 |
| 20260507094837 | 3 | 350 | 0.0 | 0.0 | 0.00 | 0.00 | 0.00 | 98 | 1014.9 |
| 20260507094334 | 3 | 11 | 0.0 | 0.0 | 0.00 | 0.00 | 0.00 | 98 | 1015.0 |
| 20260507093831 | 4 | 18 | 0.0 | 0.0 | 0.00 | 0.00 | 0.00 | 98 | 1014.9 |
| 20260507093329 | 4 | 17 | 0.0 | 0.0 | 0.00 | 0.00 | 0.00 | 98 | 1014.9 |
| 20260507092827 | 4 | 21 | 0.0 | 0.0 | 0.00 | 0.00 | 0.00 | 98 | 1014.7 |
| 20260507092323 | 3 | 17 | 0.0 | 0.0 | 0.00 | 0.00 | 0.00 | 98 | 1014.7 |
| 20260507091820 | 3 | 18 | 0.0 | 0.0 | 0.00 | 0.00 | 0.00 | 98 | 1014.9 |
| 20260507091316 | 3 | 13 | 0.0 | 0.0 | 0.00 | 0.00 | 0.00 | 98 | 1014.9 |
| 20260507090811 | 3 | 16 | 0.0 | 0.0 | 0.00 | 0.00 | 0.00 | 98 | 1014.6 |
| 20260507090308 | 3 | 19 | 0.0 | 0.0 | 0.00 | 0.00 | 0.00 | 98 | 1014.8 |
| 20260507085805 | 4 | 25 | 0.0 | 0.0 | 0.00 | 0.00 | 0.00 | 98 | 1014.4 |
| 20260507085306 | 4 | 12 | 0.0 | 0.0 | 0.00 | 0.00 | 0.00 | 98 | 1014.8 |
| 20260507084800 | 4 | 15 | 0.0 | 0.0 | 0.00 | 0.00 | 0.00 | 98 | 1014.7 |
| 20260507084255 | 4 | 20 | 0.0 | 0.0 | 0.00 | 0.00 | 0.00 | 97 | 1014.4 |
| 20260507083753 | 4 | 14 | 0.0 | 0.0 | 0.00 | 0.00 | 0.00 | 97 | 1014.4 |
| 20260507083250 | 5 | 11 | 0.0 | 0.0 | 0.00 | 0.00 | 0.00 | 97 | 1014.5 |
| 20260507082746 | 5 | 17 | 0.0 | 0.0 | 0.00 | 0.00 | 0.00 | 97 | 1014.5 |
| 20260507082242 | 5 | 359 | 0.0 | 0.0 | 0.00 | 0.00 | 0.00 | 97 | 1014.4 |
| 20260507081738 | 5 | 9 | 0.0 | 0.0 | 0.00 | 0.00 | 0.00 | 97 | 1014.6 |
| 20260507081234 | 5 | 12 | 0.0 | 0.0 | 0.00 | 0.00 | 0.00 | 97 | 1014.6 |
| 20260507080731 | 5 | 12 | 0.0 | 0.0 | 0.00 | 0.00 | 0.00 | 97 | 1014.6 |
| 20260507080227 | 5 | 2 | 0.0 | 0.0 | 0.00 | 0.00 | 0.00 | 97 | 1014.6 |
| 20260507075723 | 5 | 10 | 0.0 | 0.0 | 0.00 | 0.00 | 0.00 | 97 | 1014.4 |
| 20260507075220 | 5 | 9 | 0.0 | 0.0 | 0.00 | 0.00 | 0.00 | 96 | 1014.7 |
| 20260507074716 | 5 | 11 | 0.0 | 0.0 | 0.00 | 0.00 | 0.00 | 96 | 1014.6 |
| 20260507074214 | 5 | 20 | 0.0 | 0.0 | 0.00 | 0.00 | 0.00 | 96 | 1014.5 |
| 20260507073710 | 5 | 7 | 0.0 | 0.0 | 0.00 | 0.00 | 0.00 | 96 | 1014.6 |
| 20260507073206 | 5 | 6 | 0.0 | 0.0 | 0.00 | 0.00 | 0.00 | 97 | 1014.4 |
| 20260507072705 | 5 | 14 | 0.0 | 0.0 | 0.00 | 0.00 | 0.00 | 96 | 1014.6 |
| 20260507072202 | 6 | 23 | 0.0 | 0.0 | 0.00 | 0.00 | 0.00 | 96 | 1014.7 |
| 20260507071659 | 6 | 11 | 0.0 | 0.0 | 0.00 | 0.00 | 0.00 | 96 | 1014.5 |
| 20260507071155 | 6 | 353 | 0.0 | 0.0 | 0.00 | 0.00 | 0.00 | 96 | 1014.5 |
| 20260507070653 | 6 | 14 | 0.0 | 0.0 | 0.00 | 0.00 | 0.00 | 96 | 1014.6 |
| 20260507070149 | 6 | 340 | 0.0 | 0.0 | 0.00 | 0.00 | 0.00 | 96 | 1014.3 |
| 20260507065646 | 6 | 8 | 0.0 | 0.0 | 0.00 | 0.00 | 0.00 | 97 | 1014.5 |
| 20260507065143 | 6 | 6 | 0.0 | 0.0 | 0.00 | 0.00 | 0.00 | 97 | 1014.7 |
| 20260507064640 | 6 | 8 | 0.0 | 0.0 | 0.00 | 0.00 | 0.00 | 98 | 1014.7 |
| 20260507064139 | 6 | 10 | 0.0 | 0.0 | 0.00 | 0.00 | 0.00 | 98 | 1014.7 |
| 20260507063636 | 6 | 344 | 1.6 | 1.6 | 0.00 | 0.00 | 0.00 | 98 | 1014.7 |
| 20260507063133 | 6 | 6 | 0.0 | 0.0 | 0.00 | 0.00 | 0.00 | 98 | 1014.7 |
| 20260507062629 | 5 | 15 | 0.0 | 0.0 | 0.00 | 0.00 | 0.00 | 98 | 1015.0 |
| 20260507062128 | 5 | 12 | 0.0 | 0.0 | 0.00 | 0.00 | 0.00 | 98 | 1014.9 |
| 20260507061625 | 5 | 14 | 0.0 | 0.0 | 0.00 | 0.00 | 0.00 | 97 | 1015.0 |
| 20260507061123 | 5 | 15 | 0.0 | 0.0 | 0.00 | 0.00 | 0.00 | 97 | 1014.8 |
| 20260507060621 | 5 | 11 | 0.0 | 0.0 | 0.00 | 0.00 | 0.00 | 97 | 1014.8 |
| 20260507060117 | 5 | 9 | 0.0 | 0.0 | 0.00 | 0.00 | 0.00 | 97 | 1014.7 |
| 20260507055612 | 5 | 11 | 0.0 | 0.0 | 0.00 | 0.00 | 0.00 | 96 | 1014.5 |
| 20260507055109 | 5 | 5 | 0.0 | 0.0 | 0.00 | 0.00 | 0.00 | 96 | 1014.8 |
| 20260507054604 | 5 | 9 | 0.0 | 0.0 | 0.00 | 0.00 | 0.00 | 96 | 1014.9 |
| 20260507054102 | 5 | 7 | 0.0 | 0.0 | 0.00 | 0.00 | 0.00 | 95 | 1014.8 |
| 20260507053559 | 6 | 4 | 0.0 | 0.0 | 0.00 | 0.00 | 0.00 | 95 | 1014.7 |
| 20260507053058 | 6 | 4 | 0.0 | 0.0 | 0.00 | 0.00 | 0.00 | 94 | 1015.0 |
| 20260507052556 | 6 | 15 | 0.0 | 0.0 | 0.00 | 0.00 | 0.00 | 94 | 1014.9 |
| 20260507052052 | 6 | 10 | 0.0 | 0.0 | 0.00 | 0.00 | 0.00 | 93 | 1015.0 |
| 20260507051549 | 6 | 4 | 0.0 | 0.0 | 0.00 | 0.00 | 0.00 | 93 | 1014.9 |
| 20260507051046 | 6 | 4 | 0.0 | 0.0 | 0.00 | 0.00 | 0.00 | 93 | 1015.1 |
| 20260507050543 | 6 | 5 | 0.0 | 0.0 | 0.00 | 0.00 | 0.00 | 93 | 1015.1 |
| 20260507050039 | 6 | 4 | 0.0 | 0.0 | 0.00 | 0.00 | 0.00 | 93 | 1015.1 |
| 20260507045536 | 6 | 6 | 0.0 | 0.0 | 0.00 | 0.00 | 0.00 | 92 | 1014.9 |
| 20260507045033 | 6 | 6 | 0.0 | 0.0 | 0.00 | 0.00 | 0.00 | 91 | 1015.1 |
| 20260507044530 | 7 | 5 | 0.0 | 0.0 | 0.00 | 0.00 | 0.00 | 90 | 1015.0 |
| 20260507044027 | 7 | 4 | 0.0 | 0.0 | 0.00 | 0.00 | 0.00 | 90 | 1015.0 |
| 20260507043523 | 7 | 2 | 0.0 | 0.0 | 0.00 | 0.00 | 0.00 | 90 | 1014.7 |
| 20260507043020 | 7 | 6 | 0.0 | 0.0 | 0.00 | 0.00 | 0.00 | 90 | 1015.1 |
| 20260507042516 | 6 | 6 | 0.0 | 0.0 | 0.00 | 0.00 | 0.00 | 88 | 1014.9 |
| 20260507042011 | 7 | 6 | 0.0 | 0.0 | 0.00 | 0.00 | 0.00 | 88 | 1014.9 |
| 20260507041509 | 7 | 4 | 0.0 | 0.0 | 0.00 | 0.00 | 0.00 | 88 | 1014.8 |
| 20260507041006 | 7 | 5 | 0.0 | 0.0 | 0.00 | 0.00 | 0.00 | 87 | 1014.7 |
| 20260507040501 | 7 | 4 | 0.0 | 0.0 | 0.00 | 0.00 | 0.00 | 87 | 1014.6 |
| 20260507035957 | 7 | 4 | 0.0 | 0.0 | 0.00 | 1.09 | 1.09 | 87 | 1014.8 |
| 20260507035454 | 7 | 6 | 0.0 | 0.0 | 0.00 | 1.09 | 1.09 | 87 | 1014.5 |
| 20260507034951 | 7 | 4 | 0.0 | 0.0 | 0.00 | 1.09 | 1.09 | 87 | 1014.8 |
| 20260507034448 | 7 | 5 | 0.0 | 0.0 | 0.00 | 1.09 | 1.09 | 86 | 1014.9 |
| 20260507033946 | 7 | 5 | 0.0 | 0.0 | 0.00 | 1.09 | 1.09 | 85 | 1014.9 |
| 20260507033443 | 8 | 10 | 0.0 | 0.0 | 0.00 | 1.09 | 1.09 | 85 | 1014.8 |
| 20260507032940 | 8 | 2 | 0.0 | 0.0 | 0.00 | 1.09 | 1.09 | 85 | 1014.7 |
| 20260507032437 | 8 | 3 | 0.0 | 0.0 | 0.00 | 1.09 | 1.09 | 85 | 1014.7 |
| 20260507031933 | 8 | 4 | 0.0 | 0.0 | 0.00 | 1.09 | 1.09 | 84 | 1014.9 |
| 20260507031430 | 8 | 5 | 0.0 | 0.0 | 0.00 | 1.09 | 1.09 | 86 | 1014.9 |
| 20260507030927 | 7 | 5 | 0.0 | 0.0 | 0.00 | 1.09 | 1.09 | 85 | 1014.7 |
| 20260507030424 | 8 | 5 | 0.0 | 0.0 | 0.00 | 1.09 | 1.09 | 86 | 1014.7 |
| 20260507025921 | 8 | 5 | 0.0 | 0.0 | 0.00 | 1.09 | 1.09 | 85 | 1014.9 |
| 20260507025418 | 7 | 5 | 0.0 | 0.0 | 0.00 | 1.09 | 1.09 | 85 | 1015.0 |
| 20260507024916 | 7 | 5 | 0.0 | 0.0 | 0.00 | 1.09 | 1.09 | 84 | 1015.1 |
| 20260507024413 | 7 | 7 | 0.0 | 0.0 | 0.00 | 1.09 | 1.09 | 85 | 1015.1 |
| 20260507023909 | 8 | 6 | 0.0 | 0.0 | 0.00 | 1.09 | 1.09 | 85 | 1015.0 |
| 20260507023406 | 8 | 7 | 0.0 | 0.0 | 0.00 | 1.09 | 1.09 | 84 | 1014.9 |
| 20260507022903 | 8 | 8 | 0.0 | 0.0 | 0.00 | 1.09 | 1.09 | 83 | 1015.0 |
| 20260507022400 | 8 | 4 | 0.0 | 0.0 | 0.00 | 1.09 | 1.09 | 82 | 1014.9 |
| 20260507021856 | 8 | 3 | 0.0 | 0.0 | 0.00 | 1.09 | 1.09 | 83 | 1014.9 |
| 20260507021351 | 8 | 2 | 0.0 | 0.0 | 0.00 | 1.09 | 1.09 | 81 | 1014.7 |
| 20260507020849 | 8 | 2 | 0.0 | 0.0 | 0.00 | 1.09 | 1.09 | 84 | 1014.6 |
| 20260507020345 | 8 | 6 | 0.0 | 0.0 | 0.00 | 1.09 | 1.09 | 81 | 1014.7 |
| 20260507015842 | 8 | 2 | 0.0 | 0.0 | 0.00 | 1.09 | 1.09 | 79 | 1014.7 |
| 20260507015340 | 8 | 2 | 0.0 | 0.0 | 0.00 | 1.09 | 1.09 | 81 | 1014.5 |
| 20260507014837 | 8 | 358 | 0.0 | 0.0 | 0.00 | 1.09 | 1.09 | 80 | 1014.6 |
| 20260507014333 | 9 | 2 | 0.0 | 0.0 | 0.00 | 1.09 | 1.09 | 82 | 1014.4 |
| 20260507013830 | 9 | 3 | 0.0 | 0.0 | 0.00 | 1.09 | 1.09 | 80 | 1014.3 |
| 20260507013327 | 9 | 4 | 0.0 | 0.0 | 0.00 | 1.09 | 1.09 | 78 | 1014.3 |
| 20260507012825 | 10 | 1 | 0.0 | 0.0 | 0.00 | 1.09 | 1.09 | 78 | 1014.5 |
| 20260507012320 | 10 | 2 | 0.0 | 0.0 | 0.00 | 1.09 | 1.09 | 77 | 1014.4 |
| 20260507011818 | 10 | 0 | 0.0 | 0.0 | 0.00 | 1.09 | 1.09 | 76 | 1014.4 |
| 20260507011315 | 10 | 2 | 0.0 | 0.0 | 0.00 | 1.09 | 1.09 | 77 | 1014.1 |
| 20260507010814 | 10 | 3 | 0.0 | 0.0 | 0.00 | 1.09 | 1.09 | 77 | 1014.4 |
| 20260507010310 | 10 | 3 | 0.0 | 0.0 | 0.00 | 1.09 | 1.09 | 77 | 1014.3 |
| 20260507005808 | 10 | 5 | 0.0 | 0.0 | 0.00 | 1.09 | 1.09 | 79 | 1014.3 |
| 20260507005306 | 10 | 358 | 0.0 | 0.0 | 0.00 | 1.09 | 1.09 | 81 | 1014.4 |
| 20260507004801 | 10 | 4 | 0.0 | 0.0 | 0.00 | 1.09 | 1.09 | 79 | 1014.4 |
| 20260507004258 | 10 | 4 | 0.0 | 0.0 | 0.00 | 1.09 | 1.09 | 79 | 1014.2 |
| 20260507003754 | 10 | 4 | 0.0 | 0.0 | 0.00 | 1.09 | 1.09 | 75 | 1014.1 |
| 20260507003250 | 10 | 3 | 0.0 | 0.0 | 0.00 | 1.09 | 1.09 | 75 | 1014.1 |
| 20260507002746 | 11 | 5 | 0.0 | 0.0 | 0.00 | 1.09 | 1.09 | 74 | 1013.9 |
| 20260507002242 | 11 | 5 | 0.0 | 0.0 | 0.00 | 1.09 | 1.09 | 72 | 1013.9 |
| 20260507001739 | 11 | 4 | 0.0 | 0.0 | 0.00 | 1.09 | 1.09 | 71 | 1013.8 |
| 20260507001237 | 11 | 4 | 0.0 | 0.0 | 0.00 | 1.09 | 1.09 | 71 | 1014.0 |
| 20260507000733 | 12 | 4 | 0.0 | 0.0 | 0.00 | 1.09 | 1.09 | 68 | 1013.6 |
| 20260507000229 | 12 | 4 | 0.0 | 0.0 | 0.00 | 1.09 | 1.09 | 67 | 1013.7 |
| 20260506235725 | 12 | 1 | 0.0 | 0.0 | 0.00 | 1.09 | 1.09 | 65 | 1013.7 |
| 20260506235221 | 12 | 5 | 0.0 | 0.0 | 0.00 | 1.09 | 1.09 | 65 | 1013.7 |
| 20260506234718 | 12 | 8 | 0.0 | 0.0 | 0.00 | 1.09 | 1.09 | 64 | 1013.7 |
| 20260506234215 | 12 | 356 | 0.0 | 1.6 | 0.00 | 1.09 | 1.09 | 63 | 1013.6 |
| 20260506233713 | 12 | 4 | 0.0 | 0.0 | 0.00 | 1.09 | 1.09 | 67 | 1013.4 |
| 20260506233209 | 12 | 349 | 1.6 | 1.6 | 0.00 | 1.09 | 1.09 | 62 | 1013.5 |
| 20260506232707 | 12 | 2 | 0.0 | 0.0 | 0.00 | 1.09 | 1.09 | 62 | 1013.7 |
| 20260506232201 | 12 | 8 | 1.6 | 1.6 | 0.00 | 1.09 | 1.09 | 60 | 1013.5 |
| 20260506231658 | 12 | 14 | 1.6 | 1.6 | 0.00 | 1.09 | 1.09 | 60 | 1013.7 |
| 20260506231157 | 12 | 333 | 1.6 | 1.6 | 0.00 | 1.09 | 1.09 | 61 | 1013.9 |
| 20260506230653 | 12 | 345 | 3.2 | 3.2 | 0.00 | 1.09 | 1.09 | 60 | 1013.6 |
| 20260506230149 | 12 | 282 | 3.2 | 3.2 | 0.00 | 1.09 | 1.09 | 62 | 1013.6 |
| 20260506225646 | 13 | 311 | 3.2 | 4.8 | 0.00 | 1.09 | 1.09 | 58 | 1013.6 |
| 20260506225143 | 13 | 351 | 1.6 | 3.2 | 0.00 | 1.09 | 1.09 | 59 | 1013.6 |
| 20260506224640 | 13 | 321 | 1.6 | 3.2 | 0.00 | 1.09 | 1.09 | 58 | 1013.8 |
| 20260506224136 | 13 | 18 | 0.0 | 0.0 | 0.00 | 1.09 | 1.09 | 59 | 1014.0 |
| 20260506223633 | 13 | 339 | 3.2 | 3.2 | 0.00 | 1.09 | 1.09 | 57 | 1014.0 |
| 20260506223128 | 13 | 350 | 3.2 | 3.2 | 0.00 | 1.09 | 1.09 | 57 | 1013.9 |
| 20260506222626 | 13 | 310 | 0.0 | 1.6 | 0.00 | 1.09 | 1.09 | 60 | 1013.9 |
| 20260506222122 | 13 | 341 | 3.2 | 4.8 | 0.00 | 1.09 | 1.09 | 57 | 1013.9 |
| 20260506221620 | 13 | 358 | 1.6 | 1.6 | 0.00 | 1.09 | 1.09 | 59 | 1013.9 |
| 20260506221118 | 13 | 351 | 3.2 | 3.2 | 0.00 | 1.09 | 1.09 | 60 | 1014.2 |
| 20260506220614 | 13 | 5 | 1.6 | 1.6 | 0.00 | 1.09 | 1.09 | 60 | 1014.0 |
| 20260506220109 | 13 | 354 | 1.6 | 3.2 | 0.00 | 1.09 | 1.09 | 60 | 1014.1 |
| 20260506215606 | 13 | 327 | 1.6 | 1.6 | 0.00 | 1.09 | 1.09 | 60 | 1014.0 |
| 20260506215101 | 13 | 268 | 3.2 | 4.8 | 0.00 | 1.09 | 1.09 | 59 | 1013.7 |
| 20260506214559 | 13 | 270 | 1.6 | 3.2 | 0.00 | 1.09 | 1.09 | 61 | 1013.9 |
| 20260506214056 | 13 | 328 | 3.2 | 3.2 | 0.00 | 1.09 | 1.09 | 58 | 1013.9 |
| 20260506213554 | 13 | 18 | 1.6 | 1.6 | 0.00 | 1.09 | 1.09 | 57 | 1014.0 |
| 20260506213051 | 13 | 10 | 4.8 | 8.0 | 0.00 | 1.09 | 1.09 | 56 | 1013.7 |
| 20260506212548 | 13 | 6 | 3.2 | 3.2 | 0.00 | 1.09 | 1.09 | 58 | 1013.8 |
| 20260506212043 | 13 | 6 | 1.6 | 3.2 | 0.00 | 1.09 | 1.09 | 58 | 1013.7 |
| 20260506211539 | 13 | 278 | 1.6 | 3.2 | 0.00 | 1.09 | 1.09 | 60 | 1013.6 |
| 20260506211036 | 13 | 32 | 1.6 | 1.6 | 0.00 | 1.09 | 1.09 | 59 | 1013.6 |
| 20260506210532 | 13 | 332 | 1.6 | 1.6 | 0.00 | 1.09 | 1.09 | 60 | 1013.6 |
| 20260506210029 | 13 | 350 | 4.8 | 4.8 | 0.00 | 1.09 | 1.09 | 60 | 1013.4 |
| 20260506205526 | 13 | 315 | 3.2 | 3.2 | 0.00 | 1.09 | 1.09 | 59 | 1013.7 |
| 20260506205021 | 13 | 331 | 3.2 | 3.2 | 0.00 | 1.09 | 1.09 | 58 | 1013.5 |
| 20260506204519 | 13 | 36 | 1.6 | 3.2 | 0.00 | 1.09 | 1.09 | 58 | 1013.5 |
| 20260506204016 | 13 | 300 | 0.0 | 1.6 | 0.00 | 1.09 | 1.09 | 59 | 1013.6 |
| 20260506203514 | 13 | 10 | 0.0 | 1.6 | 0.00 | 1.09 | 1.09 | 58 | 1013.5 |
| 20260506203010 | 13 | 6 | 3.2 | 3.2 | 0.00 | 1.09 | 1.09 | 60 | 1013.5 |